STARLINK-1309, 45414

Orbit data source: Space-Track

STARLINK-1309, 45414 is a payload satellite owned by SpaceX/Seattle (US) in LEO that was launched on Wed, 18 Mar 2020 UTC via an FALCON 9 launch vehicle from the Air Force Eastern Test Range (AFETR). Payload-class satellites include a variety of spacecraft equipped with specific instruments for various scientific and technological missions. These include communications satellites like Starlink; space stations such as the ISS; scientific satellites like the Hubble; Earth observation satellites from companies like Planet Labs, Umbra, and HawkEye 360; GPS; miniature CubeSats for education and research; and military/defense satellites.

Loading next visibility...
Identifier
45414, 2020-019BG
Orbit
LEO
Country
Flag of USUS
Related business
Manufacturer
SpaceX/Seattle
Mission
Operational Commercial Communications
Bus & Motor
STARLINK, Unknown motor
Mass
260 kg wet, ~248 kg dry
Launch date (UTC)
2020-03-18 (6 years ago)
Launch vehicle
FALCON 9
Launch site
Air Force Eastern Test Range (AFETR)
Object type
Payload
Rocket body
Debris
Shape & HBR
Box + 1 Pan, 10.1 m
Radar Cross Section
13.562 m², Large (>1 m²)

Expand to show TLE details & history
Last TLE update: 18 hours ago

TLE from 18 hours ago
0 STARLINK-1309
1 45414U 20019BG  25312.31314028  .00003518  00000-0  25489-3 0  9993
2 45414  53.0550 321.5002 0001333  85.6965 274.4176 15.06413887311559
Epoch: 2025-11-08T07:30Z
TLE epoch observation values (Epoch: 2025-11-08T07:30:55.320Z)
Latitude
-0.00003°
Longitude
161.02513°
Altitude
547.977 km
Speed
7.589 km/s
True Right ascension
21h 26m 00s
True Declination
0° 00' 00"
Sunlit
Object was in daylight at epoch
Visualization orbit readout
Latitude
Unknown
Longitude
Unknown
Altitude
Unknown
Speed
Unknown
Apparent Right ascension
Unknown
Apparent Declination
Unknown
Sunlit
N/A
Visualization observer readout
Local Sidereal Time
21:22:19
Azimuth
Unknown
Elevation
Unknown
Doppler factor
Unknown
Orbital elements
Apogee altitude
548.363 km
Perigee altitude
546.516 km
Semi-major axis
6,925.577 km
Eccentricity
0.00013
Inclination
53.055°
RAAN
321.5002°
Arg. of periapsis
85.6965°
True anomaly
274.40237°
Mean anomaly
274.4176°
Eccentric anomaly
274.40999°
Mean motion
3.76582 °/min
Orbital period
95.6 mins
BSTAR
0.00025489
Loading maneuver chart data...
Computing Atmospheric mass density...

Documentation

Showing up to 5 results
|